AirNav   TITAN Aviation Fuels
 
 1182 users online  

KAGR MacDill Air Force Base Auxiliary Field
Avon Park, Florida, USA

GOING TO AVON PARK?


FAA INFORMATION EFFECTIVE 08 SEPTEMBER 2022

Location

FAA Identifier: AGR
Lat/Long: 27-38-52.2600N 081-20-29.6300W
27-38.871000N 081-20.493833W
27.6478500,-81.3415639
(estimated)
Elevation: 68 ft. / 20.7 m (surveyed)
Variation: 03W (1985)
From city: 8 miles NE of AVON PARK, FL
Time zone: UTC -4 (UTC -5 during Standard Time)
Zip code: 33825

Airport Operations

Airport use: Private use. Permission required prior to landing
Activation date: 02/1944
Control tower: no
ARTCC: MIAMI CENTER
FSS: SAINT PETERSBURG FLIGHT SERVICE STATION
FSS ST PETERSBURG PIE VIA AVON PARK AFR NOTAM PIE.
NOTAMs facility: MCF (NOTAM-D service available)
Attendance: CONTINUOUS
OFFICIAL BUSINESS ONLY. PRIOR APPROVAL REQUIRED FM DEPUTY CDR FOR OPERN, 1ST TFW, MACDILL AFB, FL OR FROM CDR, 1ST CSG, AVON PARK AF RNG, FL.
Wind indicator: yes
Segmented circle: no
Lights: ACTVT RWY LGTS CALL 813-453-6641.
Beacon: white-green (lighted land airport)
ACTVT ROTG BCN CALL 813-453-6641.

Airport Communications

WX AWOS-3 at AVO (11 nm W): 118.725 (863-453-4223)
WX AWOS-3 at SEF (11 nm S): 119.475 (863-655-6424)

Airport Services

Airframe service: NONE
Powerplant service: NONE
Bottled oxygen: NONE
Bulk oxygen: NONE

Runway Information

Runway 5/23

Dimensions: 8000 x 150 ft. / 2438 x 46 m
Surface: asphalt
Runway edge lights: medium intensity
RUNWAY 5  RUNWAY 23
Latitude: 27-38.448667N27-39.293350N
Longitude: 081-21.063667W081-19.924168W
Elevation: 65.1 ft.67.3 ft.
Traffic pattern: leftleft
Runway heading: 053 magnetic, 050 true233 magnetic, 230 true
Markings: nonprecision, in good conditionnonprecision, in good condition
Visual slope indicator: 4-light PAPI on left (3.00 degrees glide path)4-light PAPI on left (3.00 degrees glide path)
Runway end identifier lights: nono
Touchdown point: yes, no lightsyes, no lights

Airport Ownership and Management from official FAA records

Ownership: U.S. Air Force
Owner: U.S. AIR FORCE
1ST COMBAT SPT GP(TAC)
AVON PARK AF RNG, FL 33825
Manager: CHIEF AIRFIELD MANAGEMENT
1ST COMBAT SPT GP(TAC)
AVON PARK AF RNG, FL 33825
Phone 813-453-6641

Additional Remarks

E60-23 BAK-12B.
RSTD: CLSD TO ACFT OVER 150,000 LB.
DOES NOT APPEAR ON AIRNAV / NOT IN CHART SUPPLEMENT

Instrument Procedures

There are no published instrument procedures at KAGR.

Some nearby airports with instrument procedures:

KAVO - Avon Park Executive Airport (11 nm W)
KSEF - Sebring Regional Airport (11 nm S)
X07 - Lake Wales Municipal Airport (21 nm NW)
KBOW - Bartow Executive Airport (29 nm NW)
KCHN - Wauchula Municipal Airport (30 nm W)
 
Loc | Ops | Rwys | IFR | FBO | Links
Com | Nav | Svcs | Stats | Notes

Reliance Aviation
AirBoss

 
Area around KAGR (MacDill Air Force Base Auxiliary Field)
 
Road maps at: MapQuest Bing Google
 
Aerial photo
WARNING: Photo may not be current or correct
Aerial photo of KAGR (MacDill Air Force Base Auxiliary Field)
Do you have a better or more recent aerial photo of MacDill Air Force Base Auxiliary Field that you would like to share? If so, please send us your photo.

 
Sectional chart

 
Airport distance calculator
Flying to MacDill Air Force Base Auxiliary Field? Find the distance to fly.

From to KAGR

Sunrise and sunset
Times for 29-Sep-2022
 Local
(UTC-4)
 Zulu
(UTC)
Morning civil twilight06:5510:55
Sunrise07:1811:18
Sunset19:1323:13
Evening civil twilight19:3723:37

Current date and time
Zulu (UTC)  29-Sep-2022 12:41:24
Local (UTC-4)  29-Sep-2022 08:41:24
 
METAR
KAGR 282055Z AUTO 09020G41KT 10SM -RA M 27/24 A2945 RMK AO2 PK WND 09041/44 LTG DSNT NE AND SE AND W RAB30 SLP974 P0000 60001 T02690241 57056 CHINO RWY05 $
KSEF 
11nm S 
291215Z AUTO 26023G32KT 4SM DZ OVC008 20/ A2957 RMK AO2 T0196////
TAF
KISM 
38nm N 
291121Z 2912/3012 36025G40KT 4SM -SHRA BKN015 OVC025 FM291500 33020G35KT 6SM -SHRA BKN015 OVC025 FM291800 31020G30KT P6SM BKN015 OVC025 FM300100 31018G25KT P6SM OVC015 FM300600 29015KT P6SM OVC015 AMD NOT SKED
KLAL 
41nm NW 
291120Z 2912/3012 33020G35KT P6SM VCSH OVC007 FM291500 35020G35KT P6SM VCSH OVC015 FM292200 33015G25KT P6SM VCSH BKN250 FM300200 30010KT P6SM SCT250
KMLB 
46nm NE 
291121Z 2912/3012 20022G40KT 4SM -SHRA BKN007 OVC015 FM291500 27022G35KT 6SM -SHRA BKN010 OVC015 FM292100 27020G30KT P6SM VCSH BKN015 FM300000 27025G30KT P6SM BKN025 FM300300 25018G25KT P6SM BKN015 AMD NOT SKED
KMCO 
46nm N 
291121Z 2912/3018 36030G45KT 5SM -SHRA BKN010 OVC025 FM291500 33025G35KT 6SM -SHRA BKN015 OVC025 FM291800 33022G30KT P6SM -SHRA BKN015 OVC025 FM300300 31020KT P6SM BKN020 FM300600 27010KT P6SM OVC025 AMD NOT SKED
NOTAMs
Click for the latest NOTAMs
NOTAMs are issued by the DoD/FAA and will open in a separate window not controlled by AirNav.

 

 
 

Would you like to see your business listed on this page?

 If your business provides an interesting product or service to pilots, flight crews, aircraft, or users of the MacDill Air Force Base Auxiliary Field, you should consider listing it here.  To start the listing process, click on the button below
 
Add a business
 

Other Pages about MacDill Air Force Base Auxiliary Field

Update a link
 
Copyright © AirNav, LLC. All rights reserved. Privacy Policy  Contact